This demonstration page uses our WeatherBlox Daily Observations layout. Learn more.

Left ArrowRight Arrow

44.8408, -93.29828

Hourly Observations for May 24, 2021

Temp ( °F °C ) Dew Point ( °F °C ) Humidity (%) Winds ( mph kmh ) Pressure ( in mb ) Visibility ( mi km ) Precip ( " mm )
12:15 am 00:15 Cloudy 67 19.4 62 16.7 84 84 ENE 8 13 30.02 1017 9 14 0.00 0.00
12:53 am 00:53 Cloudy 67 19.4 62 16.7 84 84 E 8 13 30.02 1017 10 16 0.00 0.00
1:53 am 01:53 Cloudy with Light Rain 68 20 66 18.9 93 93 SE 10 17 30.01 1016 8 13 0.01 0.25
2:14 am 02:14 Cloudy with Light Rain 67 19.4 66 18.9 97 97 E 10 17 29.99 1016 3 5 0.29 7.37
2:27 am 02:27 Cloudy with Mist and Fog 67 19.4 66 18.9 97 97 E 8 13 29.99 1016 3 5 0.29 7.37
2:53 am 02:53 Cloudy 67 19.4 66 18.9 97 97 ESE 12 19 30.00 1016 10 16 0.29 7.37
3:07 am 03:07 Cloudy 67 19.4 66 18.9 97 97 SE 7 11 29.99 1016 9 14 0.00 0.00
3:24 am 03:24 Mostly Cloudy 67 19.4 66 18.9 97 97 ESE 6 9 29.98 1015 8 13 0.00 0.00
3:40 am 03:40 Mostly Cloudy 67 19.4 66 18.9 97 97 ESE 7 11 29.98 1015 7 11 0.00 0.00
3:53 am 03:53 Partly Cloudy 67 19.4 66 18.9 97 97 ESE 7 11 29.98 1015 7 11 0.00 0.00
4:53 am 04:53 Partly Cloudy with Mist and Fog 67 19.4 67 19.4 100 100 SE 7 11 29.97 1015 4 6 0.00 0.00
4:58 am 04:58 Mostly Cloudy with Mist and Fog 67 19.4 67 19.4 100 100 SE 9 15 29.96 1015 4 6 0.00 0.00
5:53 am 05:53 Mostly Cloudy with Mist and Fog 67 19.4 66 18.9 97 97 SE 7 11 29.97 1015 3 4 0.00 0.00
6:02 am 06:02 Mostly Cloudy with Mist and Fog 67 19.4 66 18.9 97 97 SE 6 9 29.96 1015 3 5 0.00 0.00
6:25 am 06:25 Mostly Cloudy with Mist and Fog 67 19.4 66 18.9 97 97 SE 8 13 29.96 1015 3 4 0.00 0.00
6:33 am 06:33 Mostly Cloudy with Mist and Fog 67 19.4 67 19.4 100 100 SE 7 11 29.96 1015 3 5 0.00 0.00
6:53 am 06:53 Mostly Cloudy with Mist and Fog 68 20 67 19.4 96 96 SE 8 13 29.96 1015 6 10 0.00 0.00
7:53 am 07:53 Partly Cloudy 70 21.1 67 19.4 90 90 SSE 8 13 29.96 1015 9 14 0.00 0.00
8:18 am 08:18 Mostly Cloudy 71 21.7 67 19.4 87 87 S 8 13 29.93 1014 10 16 0.00 0.00
8:53 am 08:53 Mostly Cloudy 72 22.2 67 19.4 84 84 S 12 19 29.94 1014 10 16 0.00 0.00
9:12 am 09:12 Mostly Cloudy 73 22.8 67 19.4 81 81 S 10 17 29.92 1013 10 16 0.00 0.00
9:48 am 09:48 Mostly Cloudy 75 24 66 19 74 74 S 13 20 29.90 1012 10 16 0.00 0.00
9:53 am 09:53 Mostly Cloudy 74 23.3 67 19.4 79 79 S 12 19 29.92 1013 10 16 0.00 0.00
10:34 am 10:34 Mostly Cloudy 75 23.9 66 18.9 74 74 SSW 14 22 29.90 1012 10 16 0.00 0.00
10:53 am 10:53 Cloudy 75 23.9 67 19.4 76 76 S 14 22 29.92 1013 10 16 0.00 0.00
11:46 am 11:46 Cloudy 75 23.9 66 18.9 74 74 S 13 20 29.91 1013 10 16 0.00 0.00
11:53 am 11:53 Cloudy 76 24.4 66 18.9 72 72 S 14 22 29.93 1013 10 16 0.00 0.00
12:29 pm 12:29 Cloudy 78 25.6 66 18.9 67 67 SSW 12 19 29.89 1012 10 16 0.00 0.00
12:53 pm 12:53 Mostly Cloudy 78 25.6 66 18.9 67 67 SSW 10 17 29.91 1013 10 16 0.00 0.00
1:53 pm 13:53 Mostly Cloudy 81 27.2 64 17.8 57 57 SW 14 22 29.89 1012 10 16 0.00 0.00
2:53 pm 14:53 Mostly Sunny 84 28.9 59 15 43 43 WSW 9 15 29.88 1012 10 16 0.00 0.00
3:53 pm 15:53 Mostly Sunny 86 30 54 12.2 33 33 SW 15 24 29.87 1011 10 16 0.00 0.00
4:53 pm 16:53 Mostly Sunny 86 30 54 12.2 33 33 SSW 12 19 29.85 1011 10 16 0.00 0.00
5:53 pm 17:53 Partly Cloudy 86 30 55 12.8 35 35 SW 10 17 29.83 1010 10 16 0.00 0.00
6:53 pm 18:53 Partly Cloudy 85 29.4 55 12.8 36 36 SSW 13 20 29.82 1010 10 16 0.00 0.00
7:53 pm 19:53 Mostly Cloudy 83 28.3 56 13.3 40 40 SSW 8 13 29.81 1010 10 16 0.00 0.00
8:53 pm 20:53 Mostly Cloudy 81 27.2 59 15 47 47 S 8 13 29.81 1010 10 16 0.00 0.00
9:53 pm 21:53 Mostly Cloudy 79 26.1 61 16.1 54 54 SW 7 11 29.83 1010 10 16 0.00 0.00
10:53 pm 22:53 Mostly Cloudy 78 25.6 61 16.1 56 56 SSW 7 11 29.82 1010 10 16 0.00 0.00
11:53 pm 23:53 Mostly Cloudy 77 25 58 14.4 52 52 S 10 17 29.81 1009 10 16 0.00 0.00

Powered by AerisWeather